Hourly Data Report for October 20, 2019

All times are specified in Local Standard Time (LST). Add 1 hour to adjust for Daylight Saving Time where and when it is observed.

SEPT-ILES
QUEBEC
Current Station Operator: ECCC - MSC

50°13'00.000" N
66°15'00.000" W
52.60 m
7047914
71279
XZV

Download Data

Hourly Data (October 2019)
Hourly Data Report for October 20, 2019
TIME Temp Definition
°C
Dew Point Definition
°C
Rel Hum Definition
%
Wind Dir Definition
10's deg

Wind Spd Definition
km/h
Visibility Definition
km
Stn Press Definition
kPa
Hmdx Definition


Wind Chill Definition


Weather Definition


00:00 4.1 -0.5 72 32 13   100.58     LegendNANA
01:00 3.4 -0.9 73 32 11   100.61     LegendNANA
02:00 3.1 -0.9 75 31 12   100.65     LegendNANA
03:00 3.4 -0.9 73 33 11   100.69     LegendNANA
04:00 3.5 -1.0 72 35 7   100.76     LegendNANA
05:00 1.8 -1.2 80 30 6   100.83     LegendNANA
06:00 -1.3 -3.1 87 31 2   100.89   -2 LegendNANA
07:00 3.3 -0.3 77 29 5   100.92     LegendNANA
08:00 6.3 -0.4 62 32 10   100.95     LegendNANA
09:00 8.3 -0.6 54 34 17   100.96     LegendNANA
10:00 10.1 -1.1 46 35 12   100.97     LegendNANA
11:00 11.2 -1.2 42 35 11   100.94     LegendNANA
12:00 11.4 -1.5 41 35 10   100.93     LegendNANA
13:00 12.5 -0.8 40 34 7   100.93     LegendNANA
14:00 10.5 1.9 55 24 7   100.93     LegendNANA
15:00 7.8 3.7 75 22 10   100.96     LegendNANA
16:00 7.1 3.2 76 24 5   101.02     LegendNANA
17:00 4.6 1.3 79 33 7   101.08     LegendNANA
18:00 1.9 -0.2 86 28 3   101.14     LegendNANA
19:00 0.1 -1.7 88 5 1   101.18     LegendNANA
20:00 -1.5 -3.3 88 1 1   101.21   -2 LegendNANA
21:00 -2.0 -3.3 91 31 4   101.24   -3 LegendNANA
22:00 -2.2 -3.3 92 36 4   101.20   -4 LegendNANA
23:00 -2.6 -3.7 92 35 5   101.21   -5 LegendNANA

Notes on Data Quality.

Legend

  • E = Estimated
  • M = Missing
  • NA = Not Available
Date modified: